Torna al catalogo

STARLINK-31260

AttivoComunicazioniVLEO
NORAD 58881·PAYLOAD·🇺🇸 United States

Lanciato Jan 29, 2024 da Vandenberg Space Force Base

Loading…

Prossimi Passaggi (prossime 24 ore)

TLE

AggiornatoSource: CelesTrak SupGP

Epoca: Sep 15, 2026, 01:39 UTC

1 58881C 24020F   26258.06923611 -.00059634  00000+0 -17622-2 0  2585
2 58881  53.1581 159.2706 0001377  86.5620 336.7919 15.34414758    11

Traccia STARLINK-31260 in tempo reale con AllMySat

Download on the App Store